CW4778 Weather Reports


time (UTC)temp
C
wind
direction
speed
KPH
gust
KPH
rain 1hr
cm
rain 24hr
cm
rain mn
cm
humidity
%
barometer
mb
20260509234305 16 239 22.5 33.8 0.00 0.89 0.05 92 1007.0
20260509233805 16 247 11.3 29.0 0.00 0.89 0.05 93 1007.0
20260509232804 17 229 20.9 33.8 0.00 0.89 0.05 90 1007.1
20260509232306 17 242 19.3 32.2 0.00 0.89 0.05 90 1007.1
20260509231804 17 232 25.7 35.4 0.00 0.89 0.05 91 1007.0
20260509230804 16 227 19.3 27.4 0.00 0.89 0.05 93 1007.2
20260509224804 17 223 19.3 29.0 0.00 0.91 0.05 90 1007.0
20260509224305 18 222 16.1 27.4 0.00 0.91 0.05 91 1007.0
20260509223805 18 229 12.9 25.7 0.00 0.91 0.05 93 1007.0
20260509223304 17 235 11.3 22.5 0.00 0.91 0.05 93 1007.0
20260509222307 16 231 12.9 25.7 0.00 1.02 0.05 96 1007.1
20260509221305 15 222 12.9 22.5 0.00 1.04 0.05 98 1006.9
20260509220804 15 246 19.3 27.4 0.00 1.04 0.05 97 1006.9
20260509220304 15 228 14.5 25.7 0.00 1.04 0.05 97 1006.9
20260509214305 15 235 14.5 25.7 0.00 1.04 0.05 100 1006.9
20260509213305 15 234 14.5 22.5 0.00 1.04 0.05 100 1006.9
20260509210805 13 244 14.5 25.7 0.00 1.04 0.05 100 1007.0
20260509210305 13 225 11.3 25.7 0.00 1.04 0.05 100 1006.8
20260509204305 12 232 9.7 14.5 0.03 1.04 0.05 100 1006.8
20260509201805 12 273 3.2 11.3 0.03 1.04 0.05 100 1006.5
20260509201304 12 244 0.0 3.2 0.03 1.04 0.05 100 1006.5
20260509200305 11 244 1.6 8.0 0.03 1.04 0.05 100 1006.3
20260509195804 11 244 0.0 4.8 0.00 1.02 0.05 100 1006.3
20260509195306 11 245 0.0 3.2 0.00 1.02 0.05 100 1006.2
20260509194805 11 245 1.6 3.2 0.00 1.02 0.05 100 1006.2
20260509193804 11 245 0.0 1.6 0.00 1.02 0.05 100 1006.2
20260509193305 11 245 0.0 3.2 0.00 1.02 0.05 100 1006.2
20260509192306 10 245 0.0 4.8 0.00 1.02 0.05 100 1006.1
20260509191804 10 245 0.0 3.2 0.00 1.02 0.05 100 1006.1
20260509191305 10 245 0.0 3.2 0.00 1.02 0.05 100 1006.1
20260509190804 11 244 0.0 1.6 0.00 1.02 0.05 100 1006.0
20260509185804 11 245 4.8 9.7 0.00 1.02 0.05 100 1005.9
20260509185306 11 237 3.2 14.5 0.00 1.02 0.05 100 1005.9
20260509184804 11 227 8.0 20.9 0.00 1.02 0.05 100 1006.0
20260509184304 11 258 3.2 8.0 0.00 1.02 0.05 100 1006.1
20260509181804 11 218 4.8 16.1 0.00 1.02 0.05 100 1005.9
20260509181305 11 232 14.5 25.7 0.00 1.02 0.05 100 1005.9
20260509180804 10 232 8.0 20.9 0.00 1.02 0.05 100 1005.8
20260509180305 10 243 3.2 8.0 0.00 1.02 0.05 100 1005.7
20260509174805 10 229 0.0 0.0 0.00 1.02 0.05 100 1005.5
20260509172804 10 229 0.0 1.6 0.00 1.02 0.05 100 1005.4
20260509172306 10 230 1.6 4.8 0.00 1.02 0.05 100 1005.3
20260509171804 10 229 0.0 1.6 0.00 1.02 0.05 100 1005.3
20260509165804 10 229 1.6 4.8 0.00 1.02 0.05 100 1005.2
20260509165306 10 229 3.2 8.0 0.00 1.02 0.05 100 1005.1
20260509164305 10 226 3.2 4.8 0.00 1.02 0.05 100 1005.1
20260509163305 10 236 3.2 9.7 0.00 1.02 0.05 100 1005.0
20260509162307 10 238 1.6 4.8 0.00 1.02 0.05 100 1005.0
20260509161804 10 238 0.0 1.6 0.00 1.02 0.05 100 1005.1
20260509161304 10 238 0.0 1.6 0.00 1.02 0.05 100 1005.1
20260509160804 10 238 0.0 1.6 0.00 1.02 0.05 100 1005.1
20260509160305 10 238 0.0 0.0 0.00 1.02 0.05 100 1005.1
20260509155804 10 238 0.0 0.0 0.00 1.02 0.05 99 1005.0
20260509153804 11 237 0.0 1.6 0.00 1.02 0.05 100 1005.1
20260509152804 11 237 0.0 3.2 0.00 1.02 0.05 100 1005.2
20260509152306 11 237 0.0 1.6 0.00 1.02 0.05 100 1005.2
20260509151307 11 238 0.0 0.0 0.00 1.02 0.05 100 1005.3
20260509145306 11 240 1.6 8.0 0.00 1.02 0.05 100 1005.3
20260509144304 11 226 4.8 11.3 0.00 1.02 0.05 99 1005.3
20260509142805 11 226 4.8 9.7 0.00 1.02 0.05 100 1005.5
20260509142307 11 224 4.8 8.0 0.00 1.02 0.05 100 1005.6
20260509141305 12 239 6.4 11.3 0.00 1.02 0.05 100 1005.5
20260509135805 12 232 3.2 4.8 0.00 1.02 0.05 100 1005.5
20260509134304 12 231 1.6 4.8 0.00 1.02 0.05 100 1005.5
20260509133305 12 228 3.2 9.7 0.00 1.02 0.05 100 1005.4
20260509132804 12 227 4.8 9.7 0.00 1.02 0.05 99 1005.4
20260509132306 12 229 1.6 4.8 0.00 1.02 0.05 99 1005.3
20260509131805 12 230 1.6 3.2 0.03 1.02 0.05 100 1005.2
20260509131305 12 230 3.2 9.7 0.05 1.02 0.05 100 1005.3
20260509130804 12 225 3.2 8.0 0.05 1.02 0.05 100 1005.3
20260509125307 12 234 1.6 4.8 0.05 1.04 0.05 100 1005.3
20260509124804 12 234 4.8 9.7 0.05 1.04 0.05 99 1005.4
20260509124305 12 223 4.8 9.7 0.08 1.04 0.05 100 1005.5
20260509123804 13 229 6.4 9.7 0.08 1.04 0.05 100 1005.5
20260509123305 13 224 4.8 9.7 0.08 1.04 0.05 100 1005.6
20260509122805 13 230 1.6 4.8 0.10 1.09 0.05 100 1005.7
20260509122306 13 235 3.2 9.7 0.13 1.14 0.05 100 1005.7
20260509121805 13 237 4.8 9.7 0.15 1.12 0.03 100 1005.8
20260509120842 13 285 0.0 1.6 0.51 1.12 0.00 100 1005.8
20260509115805 13 286 0.0 0.0 0.51 1.12 1.12 100 1005.8
20260509113805 13 285 1.6 4.8 0.48 1.09 1.09 100 1006.1
20260509113304 13 285 1.6 3.2 0.48 1.09 1.09 100 1006.1
20260509111306 13 243 8.0 11.3 0.20 0.99 0.79 99 1006.3
20260509110805 13 207 4.8 9.7 0.05 0.84 0.64 99 1006.3
20260509104805 12 266 1.6 3.2 0.00 0.79 0.61 99 1005.8
20260509104305 12 266 1.6 9.7 0.00 0.79 0.61 99 1005.7
20260509103805 12 266 3.2 4.8 0.00 0.79 0.61 99 1005.7
20260509102805 12 266 3.2 8.0 0.00 0.79 0.61 99 1005.6
20260509102306 12 266 3.2 4.8 0.00 0.79 0.61 99 1005.6
20260509101804 12 266 1.6 4.8 0.00 0.79 0.61 99 1005.8
20260509101305 12 266 3.2 4.8 0.03 0.79 0.61 99 1005.9
20260509095306 12 274 4.8 8.0 0.03 0.79 0.61 99 1005.7
20260509094304 12 275 4.8 9.7 0.03 0.79 0.61 99 1005.6
20260509091805 13 275 4.8 11.3 0.03 0.86 0.61 99 1005.6
20260509090805 13 286 8.0 12.9 0.00 0.86 0.58 99 1005.8
20260509082804 13 310 11.3 19.3 0.08 0.89 0.58 99 1006.1
20260509082307 13 313 8.0 14.5 0.08 0.89 0.58 99 1006.1
20260509081805 13 296 9.7 12.9 0.10 0.89 0.58 99 1006.1
20260509081305 13 271 4.8 9.7 0.13 0.89 0.58 99 1006.1
20260509080804 13 280 3.2 11.3 0.13 0.89 0.58 99 1006.1
20260509080304 13 281 3.2 8.0 0.15 0.89 0.58 99 1006.1
20260509075306 13 280 4.8 12.9 0.15 0.89 0.56 99 1006.0
20260509074305 13 290 4.8 12.9 0.15 0.89 0.56 99 1006.0
20260509073305 13 281 9.7 16.1 0.13 0.89 0.53 99 1006.1
20260509072804 14 253 11.3 19.3 0.10 0.86 0.51 99 1006.1
20260509070804 14 277 9.7 12.9 0.10 0.81 0.46 98 1005.7
20260509070305 14 267 4.8 16.1 0.08 0.79 0.43 98 1005.6
20260509063805 15 264 6.4 14.5 0.05 0.79 0.43 98 1005.4
20260509063304 15 278 8.0 11.3 0.05 0.79 0.43 98 1005.4
20260509062306 15 268 4.8 16.1 0.05 0.79 0.41 97 1005.4
20260509060805 15 279 1.6 8.0 0.00 0.74 0.36 96 1005.1
20260509055306 16 267 4.8 9.7 0.00 0.76 0.36 95 1005.1
20260509054804 16 285 6.4 16.1 0.00 0.76 0.36 95 1005.2
20260509053805 16 281 9.7 14.5 0.00 0.76 0.36 95 1005.1
20260509053305 16 278 6.4 12.9 0.00 0.76 0.36 95 1005.1
20260509052307 16 295 8.0 14.5 0.00 0.76 0.36 95 1005.0
20260509051804 16 284 6.4 14.5 0.00 0.76 0.36 95 1004.9
20260509050805 16 277 9.7 19.3 0.00 0.76 0.36 96 1005.1
20260509045804 16 279 4.8 20.9 0.00 0.76 0.36 96 1005.1
20260509044305 16 265 4.8 11.3 0.00 0.76 0.36 96 1005.1
20260509043805 16 273 4.8 9.7 0.03 0.76 0.36 96 1005.1
20260509043304 16 277 4.8 9.7 0.03 0.76 0.36 96 1005.1
20260509042804 16 273 4.8 9.7 0.03 0.76 0.36 96 1005.1
20260509042307 16 267 4.8 9.7 0.03 0.76 0.36 96 1005.2
20260509040305 16 280 3.2 11.3 0.03 0.76 0.36 95 1005.2
20260509035306 16 256 3.2 12.9 0.03 0.76 0.36 94 1005.4
20260509034305 17 265 9.7 14.5 0.03 0.76 0.36 93 1005.6
20260509033804 17 266 9.7 19.3 0.00 0.74 0.33 92 1005.6
20260509032804 17 266 11.3 20.9 0.00 0.74 0.33 92 1005.9
20260509032306 17 266 11.3 20.9 0.00 0.74 0.33 92 1006.0
20260509031805 17 266 16.1 22.5 0.00 0.74 0.33 91 1005.9
20260509031305 17 266 14.5 29.0 0.00 0.74 0.33 90 1006.0
20260509030805 17 266 8.0 16.1 0.00 0.74 0.33 90 1005.9
20260509025805 17 268 9.7 16.1 0.00 0.74 0.33 90 1006.0
20260509025307 17 267 9.7 22.5 0.00 0.74 0.33 90 1005.8
20260509024805 17 263 11.3 14.5 0.00 0.74 0.33 92 1005.7
20260509023805 17 265 9.7 24.1 0.00 0.74 0.33 92 1005.7
20260509023305 17 264 8.0 20.9 0.00 0.74 0.33 92 1005.7
20260509021805 17 256 9.7 19.3 0.00 0.74 0.33 89 1005.7
20260509021305 17 251 16.1 20.9 0.00 0.74 0.33 89 1005.7
20260509020805 17 259 11.3 20.9 0.00 0.74 0.33 89 1005.8
20260509020305 18 259 11.3 19.3 0.00 0.74 0.33 90 1005.7
20260509015805 18 268 14.5 24.1 0.00 0.74 0.33 90 1005.7
20260509015306 17 267 12.9 22.5 0.00 0.74 0.33 91 1005.7
20260509013805 17 263 9.7 19.3 0.00 0.74 0.33 94 1005.7
20260509012805 17 253 11.3 16.1 0.00 0.74 0.33 94 1005.8
20260509011804 17 270 8.0 19.3 0.03 0.74 0.33 95 1006.0
20260509010305 16 259 9.7 16.1 0.03 0.74 0.33 96 1006.3
20260509005805 16 260 11.3 16.1 0.03 0.74 0.33 96 1006.5
20260509005306 16 252 11.3 19.3 0.03 0.74 0.33 96 1006.6
20260509004805 16 251 11.3 20.9 0.05 0.74 0.33 97 1006.7
20260509002805 16 254 24.1 38.6 0.05 0.74 0.33 94 1007.2
20260509000805 17 270 14.5 20.9 0.05 0.71 0.33 96 1007.3
20260509000305 17 264 6.4 19.3 0.05 0.71 0.33 96 1007.4